User: anonymous   Login
Location: Unspecified
(0.0000°N, 0.0000°E)
Time: 11:03:06
(UTC+00:00)
Language:

Quakesat - Orbit

View from above orbital plane
View from above orbital plane
View from above satellite
View from above satellite

Ground track
Ground track

The orbit data is extracted from the following two-line orbital elements,

1 27845U 03031F   17349.97347358 +.00000098 +00000-0 +63865-4 0  9992
2 27845 098.6922 357.5093 0008579 198.1826 161.9046 14.22077272750003
Epoch (UTC): 15 December 2017 23:21:48
Eccentricity: 0.0008579
inclination: 98.6922°
perigee height: 812 km
apogee height: 824 km
right ascension of ascending node: 357.5093°
argument of perigee: 198.1826°
revolutions per day: 14.22077272
mean anomaly at epoch: 161.9046°
orbit number at epoch: 75000

The dashed part of the orbit path shows where the satellite is in the earth's shadow,  

DLR